Time,TemperatureF,DewpointF,PressureIn,WindDirection,WindDirectionDegrees,WindSpeedMPH,WindSpeedGustMPH,Humidity,HourlyPrecipIn,Conditions,Clouds,dailyrainin,SoftwareType,DateUTC
2013-05-23 00:03:00,61.0,-99.9,29.91,WSW,240,10.0,-999.0,-999,-99.99,,,-99.99,,2013-05-23 04:03:00,
2013-05-23 00:12:00,61.0,-99.9,29.91,SW,234,13.0,-999.0,-999,-99.99,,,-99.99,,2013-05-23 04:12:00,
2013-05-23 00:23:00,61.0,-99.9,29.91,SW,234,13.0,-999.0,-999,-99.99,,,-99.99,,2013-05-23 04:23:00,
2013-05-23 00:30:00,61.0,-99.9,29.91,SW,222,6.0,-999.0,-999,-99.99,,,-99.99,,2013-05-23 04:30:00,
2013-05-23 00:33:00,61.0,-99.9,29.91,SW,234,13.0,-999.0,-999,-99.99,,,-99.99,,2013-05-23 04:33:00,
2013-05-23 00:43:00,61.0,-99.9,29.91,SW,222,6.0,-999.0,-999,-99.99,,,-99.99,,2013-05-23 04:43:00,
2013-05-23 00:52:00,61.0,-99.9,29.91,SW,222,6.0,-999.0,-999,-99.99,,,-99.99,,2013-05-23 04:52:00,
2013-05-23 01:02:00,61.0,-99.9,29.91,SW,222,6.0,-999.0,-999,-99.99,,,-99.99,,2013-05-23 05:02:00,
2013-05-23 01:12:00,61.0,-99.9,29.91,SW,222,6.0,-999.0,-999,-99.99,,,-99.99,,2013-05-23 05:12:00,
2013-05-23 01:22:00,61.0,-99.9,29.91,SW,222,6.0,-999.0,-999,-99.99,,,-99.99,,2013-05-23 05:22:00,
2013-05-23 02:00:00,61.0,-99.9,29.89,SSW,212,10.0,-999.0,-999,-99.99,,,-99.99,,2013-05-23 06:00:00,
2013-05-23 02:12:00,61.0,-99.9,29.89,SSW,212,10.0,-999.0,-999,-99.99,,,-99.99,,2013-05-23 06:12:00,
2013-05-23 02:22:00,61.0,-99.9,29.89,SSW,212,10.0,-999.0,-999,-99.99,,,-99.99,,2013-05-23 06:22:00,
2013-05-23 02:32:00,61.0,-99.9,29.89,SSW,212,10.0,-999.0,-999,-99.99,,,-99.99,,2013-05-23 06:32:00,
2013-05-23 02:42:00,61.0,-99.9,29.89,SSW,212,10.0,-999.0,-999,-99.99,,,-99.99,,2013-05-23 06:42:00,
2013-05-23 02:52:00,61.0,-99.9,29.89,SSW,212,10.0,-999.0,-999,-99.99,,,-99.99,,2013-05-23 06:52:00,
2013-05-23 03:00:00,62.0,-99.9,29.88,WSW,247,12.0,-999.0,-999,-99.99,,,-99.99,,2013-05-23 07:00:00,
2013-05-23 03:22:00,62.0,-99.9,29.88,WSW,247,12.0,-999.0,-999,-99.99,,,-99.99,,2013-05-23 07:22:00,
2013-05-23 03:32:00,62.0,-99.9,29.88,WSW,247,12.0,-999.0,-999,-99.99,,,-99.99,,2013-05-23 07:32:00,
2013-05-23 03:42:00,62.0,-99.9,29.88,WSW,247,12.0,-999.0,-999,-99.99,,,-99.99,,2013-05-23 07:42:00,
2013-05-23 03:59:00,62.0,-99.9,29.88,WSW,247,12.0,-999.0,-999,-99.99,,,-99.99,,2013-05-23 07:59:00,
2013-05-23 04:22:00,63.0,-99.9,29.87,West,266,19.0,-999.0,-999,-99.99,,,-99.99,,2013-05-23 08:22:00,
2013-05-23 04:32:00,63.0,-99.9,29.87,West,266,19.0,-999.0,-999,-99.99,,,-99.99,,2013-05-23 08:32:00,
2013-05-23 04:42:00,63.0,-99.9,29.87,West,266,19.0,-999.0,-999,-99.99,,,-99.99,,2013-05-23 08:42:00,
2013-05-23 04:52:00,62.0,-99.9,29.88,WSW,255,13.0,-999.0,-999,-99.99,,,-99.99,,2013-05-23 08:52:00,
2013-05-23 05:02:00,62.0,-99.9,29.88,WSW,255,13.0,-999.0,-999,-99.99,,,-99.99,,2013-05-23 09:02:00,
2013-05-23 05:11:00,62.0,-99.9,29.88,WSW,255,13.0,-999.0,-999,-99.99,,,-99.99,,2013-05-23 09:11:00,
2013-05-23 05:22:00,62.0,-99.9,29.89,WSW,239,13.0,-999.0,-999,-99.99,,,-99.99,,2013-05-23 09:22:00,
2013-05-23 05:33:00,62.0,-99.9,29.89,WSW,239,13.0,-999.0,-999,-99.99,,,-99.99,,2013-05-23 09:33:00,
2013-05-23 05:42:00,62.0,-99.9,29.89,WSW,239,13.0,-999.0,-999,-99.99,,,-99.99,,2013-05-23 09:42:00,
2013-05-23 05:53:00,62.0,-99.9,29.89,WSW,257,12.0,-999.0,-999,-99.99,,,-99.99,,2013-05-23 09:53:00,
2013-05-23 06:00:00,62.0,-99.9,29.90,WSW,257,13.0,-999.0,-999,-99.99,,,-99.99,,2013-05-23 10:00:00,
2013-05-23 06:03:00,62.0,-99.9,29.89,WSW,257,12.0,-999.0,-999,-99.99,,,-99.99,,2013-05-23 10:03:00,
2013-05-23 06:13:00,62.0,-99.9,29.89,WSW,257,12.0,-999.0,-999,-99.99,,,-99.99,,2013-05-23 10:13:00,
2013-05-23 06:22:00,62.0,-99.9,29.90,WSW,257,13.0,-999.0,-999,-99.99,,,-99.99,,2013-05-23 10:22:00,
2013-05-23 06:33:00,62.0,-99.9,29.90,WSW,257,13.0,-999.0,-999,-99.99,,,-99.99,,2013-05-23 10:33:00,
2013-05-23 06:42:00,62.0,-99.9,29.90,WSW,257,13.0,-999.0,-999,-99.99,,,-99.99,,2013-05-23 10:42:00,
2013-05-23 06:52:00,62.0,-99.9,29.90,WSW,257,13.0,-999.0,-999,-99.99,,,-99.99,,2013-05-23 10:52:00,
2013-05-23 07:22:00,63.0,-99.9,29.91,West,281,18.0,-999.0,-999,-99.99,,,-99.99,,2013-05-23 11:22:00,
2013-05-23 07:32:00,63.0,-99.9,29.91,West,281,18.0,-999.0,-999,-99.99,,,-99.99,,2013-05-23 11:32:00,
2013-05-23 07:42:00,63.0,-99.9,29.91,West,281,18.0,-999.0,-999,-99.99,,,-99.99,,2013-05-23 11:42:00,
2013-05-23 07:52:00,63.0,-99.9,29.91,WSW,254,15.0,-999.0,-999,-99.99,,,-99.99,,2013-05-23 11:52:00,
2013-05-23 08:00:00,63.0,-99.9,29.91,WSW,258,16.0,-999.0,-999,-99.99,,,-99.99,,2013-05-23 12:00:00,
2013-05-23 08:02:00,63.0,-99.9,29.91,WSW,254,15.0,-999.0,-999,-99.99,,,-99.99,,2013-05-23 12:02:00,
2013-05-23 08:12:00,63.0,-99.9,29.91,WSW,254,15.0,-999.0,-999,-99.99,,,-99.99,,2013-05-23 12:12:00,
2013-05-23 08:22:00,63.0,-99.9,29.91,WSW,258,16.0,-999.0,-999,-99.99,,,-99.99,,2013-05-23 12:22:00,
2013-05-23 08:33:00,63.0,-99.9,29.91,WSW,258,16.0,-999.0,-999,-99.99,,,-99.99,,2013-05-23 12:33:00,
2013-05-23 08:42:00,63.0,-99.9,29.91,WSW,258,16.0,-999.0,-999,-99.99,,,-99.99,,2013-05-23 12:42:00,
2013-05-23 08:52:00,63.0,-99.9,29.91,WSW,258,16.0,-999.0,-999,-99.99,,,-99.99,,2013-05-23 12:52:00,
2013-05-23 09:00:00,63.0,-99.9,29.91,WSW,253,12.0,-999.0,-999,-99.99,,,-99.99,,2013-05-23 13:00:00,
2013-05-23 09:22:00,63.0,-99.9,29.91,WSW,253,12.0,-999.0,-999,-99.99,,,-99.99,,2013-05-23 13:22:00,
2013-05-23 09:32:00,63.0,-99.9,29.91,WSW,253,12.0,-999.0,-999,-99.99,,,-99.99,,2013-05-23 13:32:00,
2013-05-23 09:42:00,63.0,-99.9,29.91,WSW,253,12.0,-999.0,-999,-99.99,,,-99.99,,2013-05-23 13:42:00,
2013-05-23 09:52:00,63.0,-99.9,29.91,WSW,253,12.0,-999.0,-999,-99.99,,,-99.99,,2013-05-23 13:52:00,
2013-05-23 13:00:00,65.0,-99.9,29.92,WSW,257,13.0,-999.0,-999,-99.99,,,-99.99,,2013-05-23 17:00:00,
2013-05-23 13:12:00,65.0,-99.9,29.92,WSW,257,13.0,-999.0,-999,-99.99,,,-99.99,,2013-05-23 17:12:00,
2013-05-23 13:23:00,65.0,-99.9,29.92,WSW,257,13.0,-999.0,-999,-99.99,,,-99.99,,2013-05-23 17:23:00,
2013-05-23 13:34:00,65.0,-99.9,29.92,WSW,257,13.0,-999.0,-999,-99.99,,,-99.99,,2013-05-23 17:34:00,
2013-05-23 13:43:00,65.0,-99.9,29.92,WSW,257,13.0,-999.0,-999,-99.99,,,-99.99,,2013-05-23 17:43:00,
2013-05-23 13:53:00,65.0,-99.9,29.92,WSW,257,13.0,-999.0,-999,-99.99,,,-99.99,,2013-05-23 17:53:00,
2013-05-23 21:22:00,64.0,-99.9,29.89,SW,227,14.0,-999.0,-999,-99.99,,,-99.99,,2013-05-24 01:22:00,
2013-05-23 21:32:00,64.0,-99.9,29.89,SW,227,14.0,-999.0,-999,-99.99,,,-99.99,,2013-05-24 01:32:00,
2013-05-23 22:22:00,63.0,-99.9,29.87,SSW,210,18.0,-999.0,-999,-99.99,,,-99.99,,2013-05-24 02:22:00,
2013-05-23 22:32:00,63.0,-99.9,29.87,SSW,210,18.0,-999.0,-999,-99.99,,,-99.99,,2013-05-24 02:32:00,
2013-05-23 23:22:00,62.0,-99.9,29.85,SW,225,12.0,-999.0,-999,-99.99,,,-99.99,,2013-05-24 03:22:00,
2013-05-23 23:30:00,63.0,-99.9,29.83,SW,229,20.0,-999.0,-999,-99.99,,,-99.99,,2013-05-24 03:30:00,
2013-05-23 23:33:00,62.0,-99.9,29.85,SW,225,12.0,-999.0,-999,-99.99,,,-99.99,,2013-05-24 03:33:00,
2013-05-23 23:43:00,62.0,-99.9,29.85,SW,225,12.0,-999.0,-999,-99.99,,,-99.99,,2013-05-24 03:43:00,
2013-05-23 23:53:00,63.0,-99.9,29.83,SW,229,20.0,-999.0,-999,-99.99,,,-99.99,,2013-05-24 03:53:00,